DB0TFM-6 Weather Reports


Display with metric or nautical units.
time (UTC)temp
F
wind
direction
speed
MPH
gust
MPH
rain 1hr
in
rain 24hr
in
rain mn
in
humidity
%
barometer
mb
20200128150540 0 0.0 0.0 0.00 0.00 0.00
20200128150418 44 180 22.0 32.0 0.00 0.00 0.00 93
20200128145916 44 180 24.0 36.0 0.00 0.00 0.00 92
20200128145538 0 0.0 0.0 0.00 0.00 0.00
20200128144538 0 0.0 0.0 0.00 0.00 0.00
20200128144400 44 180 25.0 37.0 0.00 0.00 0.00 90
20200128143856 44 180 23.0 36.0 0.00 0.00 0.00 92
20200128143537 0 0.0 0.0 0.00 0.00 0.00
20200128143353 44 180 17.0 32.0 0.00 0.00 0.00 93
20200128142848 44 180 18.0 36.0 0.00 0.00 0.00 91
20200128142538 0 0.0 0.0 0.00 0.00 0.00
20200128141838 44 180 23.0 36.0 0.00 0.00 0.00 88 5.0
20200128141538 0 0.0 0.0 0.00 0.00 0.00
20200128140538 0 0.0 0.0 0.00 0.00 0.00
20200128140325 44 180 23.0 33.0 0.00 0.00 0.00 93
20200128135819 44 180 23.0 36.0 0.00 0.00 0.00 93
20200128135539 0 0.0 0.0 0.00 0.00 0.00
20200128135319 44 180 21.0 34.0 0.00 0.00 0.00 94
20200128134543 0 0.0 0.0 0.00 0.00 0.00
20200128134306 44 180 21.0 25.0 0.00 0.00 0.00 98
20200128133540 0 0.0 0.0 0.00 0.00 0.00
20200128132752 44 180 23.0 26.0 0.00 0.00 0.00 97
20200128132539 0 0.0 0.0 0.00 0.00 0.00
20200128131540 0 0.0 0.0 0.00 0.00 0.00
20200128130538 0 0.0 0.0 0.00 0.00 0.00
20200128130233 44 180 32.0 37.0 0.00 0.00 0.00 98
20200128125538 0 0.0 0.0 0.00 0.00 0.00
20200128124718 44 180 24.0 37.0 0.00 0.00 0.00 97
20200128124618 0 0.0 0.0 0.00 0.00 0.00
20200128124538 0 0.0 0.0 0.00 0.00 0.00
20200128124214 44 180 31.0 37.0 0.00 0.00 0.00 97
20200128123708 44 180 23.0 32.0 0.00 0.00 0.00 96
20200128123538 0 0.0 0.0 0.00 0.00 0.00
20200128123212 44 180 17.0 36.0 0.00 0.00 0.00 97
20200128122700 44 180 28.0 35.0 0.00 0.00 0.00 97
20200128122538 0 0.0 0.0 0.00 0.00 0.00
20200128121649 44 180 23.0 35.0 0.00 0.00 0.00 97
20200128121538 0 0.0 0.0 0.00 0.00 0.00
20200128121145 44 180 23.0 36.0 0.00 0.00 0.00 96
20200128120538 0 0.0 0.0 0.00 0.00 0.00
20200128120139 44 180 20.0 35.0 0.00 0.00 0.00 96
20200128115631 44 180 23.0 34.0 0.00 0.00 0.00 97
20200128115539 0 0.0 0.0 0.00 0.00 0.00
20200128114624 45 180 21.0 31.0 0.00 0.00 0.00 99
20200128114540 0 0.0 0.0 0.00 0.00 0.00
20200128113613 45 180 21.0 34.0 0.00 0.00 0.00 99
20200128113538 0 0.0 0.0 0.00 0.00 0.00
20200128112606 45 180 22.0 34.0 0.00 0.00 0.00 99
20200128112538 0 0.0 0.0 0.00 0.00 0.00
20200128112106 44 180 29.0 35.0 0.00 0.00 0.00 100
20200128111623 0 0.0 0.0 0.00 0.00 0.00
20200128111540 0 0.0 0.0 0.00 0.00 0.00
20200128110538 0 0.0 0.0 0.00 0.00 0.00
20200128105541 44 180 22.0 26.0 0.00 0.00 0.00 100
20200128105034 44 180 22.0 32.0 0.00 0.00 0.00 100
20200128104539 0 0.0 0.0 0.00 0.00 0.00
20200128104528 44 180 23.0 33.0 0.00 0.00 0.00 100
20200128104023 44 180 23.0 32.0 0.00 0.00 0.00 100
20200128103537 0 0.0 0.0 0.00 0.00 0.00
20200128103520 44 180 25.0 32.0 0.00 0.00 0.00 100
20200128103017 44 180 22.0 33.0 0.00 0.00 0.00 100
20200128102537 0 0.0 0.0 0.00 0.00 0.00
20200128102006 44 180 17.0 30.0 0.00 0.00 0.00 100
20200128101539 0 0.0 0.0 0.00 0.00 0.00
20200128101501 44 180 21.0 33.0 0.00 0.00 0.00 100
20200128100539 0 0.0 0.0 0.00 0.00 0.00
20200128100456 44 180 23.0 33.0 0.00 0.00 0.00 100
20200128095949 44 180 24.0 26.0 0.00 0.00 0.00 100
20200128095537 0 0.0 0.0 0.00 0.00 0.00
20200128095443 44 180 24.0 34.0 0.00 0.00 0.00 100
20200128094538 0 0.0 0.0 0.00 0.00 0.00
20200128093542 0 0.0 0.0 0.00 0.00 0.00
20200128092922 45 180 24.0 31.0 0.00 0.00 0.00 100
20200128092541 0 0.0 0.0 0.00 0.00 0.00
20200128091912 45 180 23.0 33.0 0.00 0.00 0.00 100
20200128091539 0 0.0 0.0 0.00 0.00 0.00
20200128091407 45 180 23.0 24.0 0.00 0.00 0.00 100
20200128090538 0 0.0 0.0 0.00 0.00 0.00
20200128090400 44 180 23.0 26.0 0.00 0.00 0.00 100
20200128085853 44 180 23.0 25.0 0.00 0.00 0.00 100
20200128085538 0 0.0 0.0 0.00 0.00 0.00
20200128085351 44 180 22.0 33.0 0.00 0.00 0.00 100
20200128084845 44 180 24.0 39.0 0.00 0.00 9.94 100
20200128084539 0 0.0 0.0 0.00 0.00 0.00
20200128083540 0 0.0 0.0 0.00 0.00 0.00
20200128083333 44 180 24.0 40.0 0.00 0.00 8.66 100
20200128082829 44 180 23.0 40.0 0.00 0.00 8.14 100
20200128082538 0 0.0 0.0 0.00 0.00 0.00
20200128082325 45 180 24.0 40.0 0.00 0.00 8.02 100
20200128081820 45 180 32.0 37.0 0.00 0.00 7.53 99
20200128081538 0 0.0 0.0 0.00 0.00 0.00
20200128080537 0 0.0 0.0 0.00 0.00 0.00
20200128080306 48 180 23.0 36.0 0.00 0.00 6.69 96
20200128075542 0 0.0 0.0 0.00 0.00 0.00
20200128075255 48 180 23.0 34.0 0.00 0.00 6.03 95
20200128074540 0 0.0 0.0 0.00 0.00 0.00
20200128074247 48 180 19.0 34.0 0.00 0.00 5.49 94
20200128073549 0 0.0 0.0 0.00 0.00 0.00
20200128073237 48 180 30.0 35.0 0.00 0.00 5.16 92
20200128072735 48 180 24.0 34.0 0.00 0.00 5.03 92
20200128072539 0 0.0 0.0 0.00 0.00 0.00
20200128071727 48 180 21.0 34.0 0.00 0.00 4.71 91
20200128071547 0 0.0 0.0 0.00 0.00 0.00
20200128071219 48 180 24.0 35.0 0.00 0.00 4.51 90
20200128070538 0 0.0 0.0 0.00 0.00 0.00
20200128070211 48 180 23.0 32.0 0.00 0.00 3.91 92
20200128065709 48 180 22.0 39.0 0.00 0.00 3.65 93
20200128065539 0 0.0 0.0 0.00 0.00 0.00
20200128065202 48 180 12.0 34.0 0.00 0.00 3.44 95
20200128064657 48 180 19.0 30.0 0.00 0.00 3.15 95
20200128064538 0 0.0 0.0 0.00 0.00 0.00
20200128064152 48 180 22.0 32.0 0.00 0.00 2.88 96
20200128063537 0 0.0 0.0 0.00 0.00 0.00
20200128062640 47 180 23.0 26.0 0.00 0.00 2.58 96
20200128062538 0 0.0 0.0 0.00 0.00 0.00
20200128062134 47 180 18.0 31.0 0.00 0.00 2.50 96
20200128061539 0 0.0 0.0 0.00 0.00 0.00
20200128061126 48 180 18.0 26.0 0.00 0.00 2.46 96
20200128060621 48 180 20.0 25.0 0.00 0.00 2.46 96
20200128060548 0 0.0 0.0 0.00 0.00 0.00
20200128060116 48 180 13.0 33.0 0.00 0.00 2.41 93
20200128055614 48 180 8.0 32.0 0.00 0.00 2.39 92
20200128055544 0 0.0 0.0 0.00 0.00 0.00
20200128055106 48 180 14.0 24.0 0.00 0.00 2.39 91
20200128054604 48 180 20.0 23.0 0.00 0.00 2.35 90
20200128054540 0 0.0 0.0 0.00 0.00 0.00
20200128054057 48 180 6.0 25.0 0.00 0.00 2.35 91
20200128053555 48 180 9.0 32.0 0.00 0.00 2.35 91
20200128053537 0 0.0 0.0 0.00 0.00 0.00
20200128053050 48 180 19.0 33.0 0.00 0.00 2.29 91
20200128052537 0 0.0 0.0 0.00 0.00 0.00
20200128051541 0 0.0 0.0 0.00 0.00 0.00
20200128050537 0 0.0 0.0 0.00 0.00 0.00
20200128045537 0 0.0 0.0 0.00 0.00 0.00
20200128045520 48 180 20.0 33.0 0.00 0.00 1.98 93
20200128045012 47 180 23.0 31.0 0.00 0.00 1.90 93
20200128044537 0 0.0 0.0 0.00 0.00 0.00
20200128043539 0 0.0 0.0 0.00 0.00 0.00
20200128042959 47 180 21.0 33.0 0.00 0.00 1.40 94
20200128042537 0 0.0 0.0 0.00 0.00 0.00
20200128041950 47 180 22.0 32.0 0.00 0.00 1.25 94
20200128041538 0 0.0 0.0 0.00 0.00 0.00
20200128041441 47 180 24.0 32.0 0.00 0.00 1.18 95
20200128040537 0 0.0 0.0 0.00 0.00 0.00
20200128035929 47 180 23.0 31.0 0.00 0.00 0.86 96
20200128035536 0 0.0 0.0 0.00 0.00 0.00
20200128035424 47 180 18.0 24.0 0.00 0.00 0.75 96
20200128034536 0 0.0 0.0 0.00 0.00 0.00
20200128033910 47 180 9.0 31.0 0.00 0.00 0.47 95
20200128033547 0 0.0 0.0 0.00 0.00 0.00
20200128033405 47 180 16.0 31.0 0.00 0.00 0.34 95
20200128032905 47 180 23.0 34.0 0.00 0.00 0.31 96
20200128032536 0 0.0 0.0 0.00 0.00 0.00
20200128032356 47 180 22.0 32.0 0.00 0.00 0.16 96
20200128031851 46 180 24.0 30.0 0.00 0.00 0.16 96
20200128031538 0 0.0 0.0 0.00 0.00 0.00
20200128031348 46 180 21.0 31.0 0.00 0.00 0.06 96
20200128030844 46 180 24.0 26.0 0.00 0.00 0.01 97
20200128030538 0 0.0 0.0 0.00 0.00 0.00
20200128030339 0 180 22.0 0.0 0.00 0.00 0.00
20200128022617 0 0.0 0.0 0.00 0.00 0.00
20200128022456 47 180 22.0 35.0 0.00 0.00 5.93 96
20200128021950 47 180 21.0 34.0 0.00 0.00 5.64 96
20200128021615 0 0.0 0.0 0.00 0.00 0.00
20200128021449 47 180 22.0 35.0 0.00 0.00 5.43 96
20200128020943 47 180 32.0 36.0 0.00 0.00 5.24 97
20200128020616 0 0.0 0.0 0.00 0.00 0.00
20200128015934 47 180 23.0 33.0 0.00 0.00 4.92 97
20200128015612 0 0.0 0.0 0.00 0.00 0.00
20200128014922 47 180 29.0 36.0 0.00 0.00 4.47 98
20200128014612 0 0.0 0.0 0.00 0.00 0.00
20200128014418 47 180 23.0 35.0 0.00 0.00 4.15 98
20200128013914 47 180 18.0 34.0 0.00 0.00 3.93 98
20200128013613 0 0.0 0.0 0.00 0.00 0.00
20200128013410 47 180 23.0 32.0 0.00 0.00 3.80 98
20200128012614 0 0.0 0.0 0.00 0.00 0.00
20200128012402 47 180 14.0 35.0 0.00 0.00 3.51 98
20200128011857 47 180 13.0 33.0 0.00 0.00 3.38 98
20200128011612 0 0.0 0.0 0.00 0.00 0.00
20200128011351 48 180 32.0 30.0 0.00 0.00 3.22 98
20200128010614 0 0.0 0.0 0.00 0.00 0.00
20200128010342 48 180 13.0 26.0 0.00 0.00 3.04 98
20200128005643 0 0.0 0.0 0.00 0.00 0.00
20200128005611 0 0.0 0.0 0.00 0.00 0.00
20200128004834 48 180 14.0 24.0 0.00 0.00 3.00 98
20200128004611 0 0.0 0.0 0.00 0.00 0.00
20200128004324 48 180 18.0 24.0 0.00 0.00 3.00 97
20200128003825 48 180 22.0 24.0 0.00 0.00 3.00 97
20200128003614 0 0.0 0.0 0.00 0.00 0.00
20200128002842 0 0.0 0.0 0.00 0.00 0.00
20200128002812 48 180 13.0 30.0 0.00 0.00 2.99 97
20200128002611 0 0.0 0.0 0.00 0.00 0.00
20200128001613 0 0.0 0.0 0.00 0.00 0.00
20200128001259 48 180 19.0 24.0 0.00 0.00 2.95 96
20200128000615 0 0.0 0.0 0.00 0.00 0.00
20200128000248 48 180 12.0 24.0 0.00 0.00 2.94 96
20200127235743 48 180 5.0 32.0 0.00 0.00 2.94 96
20200127235700 0 0.0 0.0 0.00 0.00 0.00
20200127235614 0 0.0 0.0 0.00 0.00 0.00
20200127235239 48 180 17.0 33.0 0.00 0.00 2.89 96
20200127234615 0 0.0 0.0 0.00 0.00 0.00
20200127233725 48 180 12.0 34.0 0.00 0.00 2.64 96
20200127233611 0 0.0 0.0 0.00 0.00 0.00
20200127233235 48 180 19.0 35.0 0.00 0.00 2.43 96
20200127232613 0 0.0 0.0 0.00 0.00 0.00
20200127232217 48 180 17.0 31.0 0.00 0.00 2.35 96
20200127231612 0 0.0 0.0 0.00 0.00 0.00
20200127230611 0 0.0 0.0 0.00 0.00 0.00
20200127230154 48 180 22.0 33.0 0.00 0.00 2.15 96
20200127225615 0 0.0 0.0 0.00 0.00 0.00
20200127225144 48 180 24.0 31.0 0.00 0.00 1.95 96
20200127224612 0 0.0 0.0 0.00 0.00 0.00
20200127223652 0 0.0 0.0 0.00 0.00 0.00
20200127223633 48 180 21.0 32.0 0.00 0.00 1.84 96
20200127223612 0 0.0 0.0 0.00 0.00 0.00
20200127222622 47 180 16.0 31.0 0.00 0.00 1.41 96
20200127222611 0 0.0 0.0 0.00 0.00 0.00
20200127221611 0 0.0 0.0 0.00 0.00 0.00
20200127220614 0 0.0 0.0 0.00 0.00 0.00
20200127220606 47 180 18.0 31.0 0.00 0.00 1.16 96
20200127215612 0 0.0 0.0 0.00 0.00 0.00
20200127215557 47 180 17.0 32.0 0.00 0.00 1.01 96
20200127214612 0 0.0 0.0 0.00 0.00 0.00
20200127214547 47 180 22.0 24.0 0.00 0.00 0.91 96
20200127214041 47 180 21.0 25.0 0.00 0.00 0.90 96
20200127213611 0 0.0 0.0 0.00 0.00 0.00
20200127213539 47 180 20.0 31.0 0.00 0.00 0.90 96
20200127213035 47 180 19.0 30.0 0.00 0.00 0.81 96
20200127212616 0 0.0 0.0 0.00 0.00 0.00
20200127212531 47 180 22.0 31.0 0.00 0.00 0.76 96
20200127212025 47 180 22.0 30.0 0.00 0.00 0.71 96
20200127211615 0 0.0 0.0 0.00 0.00 0.00
20200127211015 47 180 22.0 30.0 0.00 0.00 0.61 95
20200127210611 0 0.0 0.0 0.00 0.00 0.00
20200127210516 47 180 22.0 27.0 0.00 0.00 0.59 96
20200127205616 0 0.0 0.0 0.00 0.00 0.00
20200127205503 47 180 22.0 30.0 0.00 0.00 0.56 96
20200127204957 47 180 23.0 30.0 0.00 0.00 0.56 96
20200127204613 0 0.0 0.0 0.00 0.00 0.00
20200127204453 47 180 22.0 31.0 0.00 0.00 0.54 96
20200127203651 0 0.0 0.0 0.00 0.00 0.00
20200127203615 0 0.0 0.0 0.00 0.00 0.00
20200127202611 0 0.0 0.0 0.00 0.00 0.00
20200127201930 47 180 22.0 30.0 0.00 0.00 0.31 96
20200127201611 0 0.0 0.0 0.00 0.00 0.00
20200127201426 47 180 22.0 24.0 0.00 0.00 0.25 96
20200127200921 47 180 23.0 24.0 0.00 0.00 0.25 96
20200127200612 0 0.0 0.0 0.00 0.00 0.00
20200127200418 47 180 9.0 31.0 0.00 0.00 0.25 96
20200127195911 47 180 29.0 29.0 0.00 0.00 0.20 95
20200127195610 0 0.0 0.0 0.00 0.00 0.00
20200127194612 0 0.0 0.0 0.00 0.00 0.00
20200127194400 47 180 15.0 29.0 0.00 0.00 0.15 95
20200127193617 0 0.0 0.0 0.00 0.00 0.00
20200127193355 48 180 22.0 24.0 0.00 0.00 0.14 96
20200127192611 0 0.0 0.0 0.00 0.00 0.00
20200127191612 0 0.0 0.0 0.00 0.00 0.00
20200127191335 48 180 22.0 24.0 0.00 0.00 0.10 96
20200127190829 48 180 8.0 24.0 0.00 0.00 0.10 96
20200127190611 0 0.0 0.0 0.00 0.00 0.00
20200127185821 48 180 18.0 24.0 0.00 0.00 0.09 96
20200127185611 0 0.0 0.0 0.00 0.00 0.00
20200127184612 0 0.0 0.0 0.00 0.00 0.00
20200127183759 48 180 17.0 24.0 0.00 0.00 0.08 95
20200127183612 0 0.0 0.0 0.00 0.00 0.00
20200127183256 48 180 14.0 24.0 0.00 0.00 0.08 95
20200127182611 0 0.0 0.0 0.00 0.00 0.00
20200127182246 48 180 16.0 23.0 0.00 0.00 0.08 95
20200127181614 0 0.0 0.0 0.00 0.00 0.00
20200127181239 48 180 18.0 24.0 0.00 0.00 0.08 95
20200127180734 47 180 17.0 23.0 0.00 0.00 0.07 95
20200127180700 0 0.0 0.0 0.00 0.00 0.00
20200127180610 0 0.0 0.0 0.00 0.00 0.00
20200127180233 47 180 14.0 23.0 0.00 0.00 0.06 95
20200127175724 48 180 17.0 23.0 0.00 0.00 0.06 95
20200127175612 0 0.0 0.0 0.00 0.00 0.00
20200127175220 48 180 22.0 22.0 0.00 0.00 0.05 95
20200127174611 0 0.0 0.0 0.00 0.00 0.00
20200127173610 0 0.0 0.0 0.00 0.00 0.00
20200127173204 47 180 9.0 22.0 0.00 0.00 0.05 95
20200127172611 0 0.0 0.0 0.00 0.00 0.00
20200127172152 48 180 7.0 14.0 0.00 0.00 0.04 95
20200127171648 48 180 4.0 16.0 0.00 0.00 0.04 95
20200127171610 0 0.0 0.0 0.00 0.00 0.00
20200127171143 48 180 4.0 13.0 0.00 0.00 0.04 95
20200127170610 0 0.0 0.0 0.00 0.00 0.00
20200127170134 48 180 3.0 16.0 0.00 0.00 0.04 94
20200127165632 48 180 4.0 11.0 0.00 0.00 0.04 94
20200127165610 0 0.0 0.0 0.00 0.00 0.00
20200127165245 0 0.0 0.0 0.00 0.00 0.00
20200127165125 48 180 3.0 10.0 0.00 0.00 0.04 94
20200127164611 0 0.0 0.0 0.00 0.00 0.00
20200127163611 0 0.0 0.0 0.00 0.00 0.00
20200127163109 48 180 3.0 9.0 0.00 0.00 0.04 94
20200127162610 0 0.0 0.0 0.00 0.00 0.00
20200127162604 48 180 2.0 9.0 0.00 0.00 0.04 94
20200127162058 48 180 8.0 8.0 0.00 0.00 0.04 94
20200127161614 0 0.0 0.0 0.00 0.00 0.00
20200127161553 48 180 2.0 11.0 0.00 0.00 0.04 94
20200127161048 48 180 5.0 9.0 0.00 0.00 0.04 94
20200127160612 0 0.0 0.0 0.00 0.00 0.00
20200127160042 48 180 0.0 11.0 0.00 0.00 0.04 94
20200127155612 0 0.0 0.0 0.00 0.00 0.00
20200127155036 48 180 3.0 8.0 0.00 0.00 0.04 94
20200127154610 0 0.0 0.0 0.00 0.00 0.00
20200127154023 48 180 18.0 23.0 0.00 0.00 0.04 94
20200127153610 0 0.0 0.0 0.00 0.00 0.00
20200127153519 48 180 20.0 23.0 0.00 0.00 0.04 93
20200127152610 0 0.0 0.0 0.00 0.00 0.00
20200127152513 48 180 17.0 23.0 0.00 0.00 0.04 94
20200127151610 0 0.0 0.0 0.00 0.00 0.00
20200127151501 48 180 4.0 22.0 0.00 0.00 0.03 94
20200127151000 48 180 5.0 23.0 0.00 0.00 0.03 94